Location: Hermaringen
(48.5952°N, 10.2585°E)
Time: 03:03:42
(UTC+00:00)

Altair - Pass Details

Date: 22 February 2026
Orbit: 1502 x 1682 km, 47.2° (Epoch: 7 March)

Event Time Altitude Azimuth Distance (km) Brightness Sun altitude
Rises 09:33:51 0° 290° (WNW) 4,712 9.6 25.7°
Reaches altitude 10° 09:37:18 10° 280° (W) 3,750 9.2 26.0°
Maximum altitude 09:45:12 31° 224° (SW) 2,523 9.1 26.7°
Drops below altitude 10° 09:53:22 10° 167° (SSE) 3,858 11.2 27.3°
Sets 09:57:00 0° 157° (SSE) 4,866 11.4 27.6°
